GFSSE_sfc_thetae_048.txt.gz
Theta_e
341 345 346 348 347 346 345 343 342 342 341 341 341 341 341 341 341 340 340 340 340 338 337 338 338 338 341 343 341 340 339 340 340 340 338 336 336 336 337 338 338 336 340
343 344 345 347 347 345 344 342 341 340 341 341 341 341 341 341 340 339 339 339 339 337 339 340 340 339 339 341 341 340 339 339 339 337 336 335 335 334 334 333 335 332 337
342 344 344 345 346 344 343 342 341 340 340 339 339 341 340 339 339 339 338 339 339 339 342 342 341 340 340 341 341 339 337 336 336 335 333 325 327 333 333 332 333 332 332
343 343 343 345 344 343 342 340 339 339 339 340 340 339 339 339 339 339 338 337 338 338 337 340 342 342 341 340 339 336 334 333 332 330 324 325 327 333 333 333 332 332 332
342 342 342 343 342 342 340 339 339 339 340 340 339 338 338 339 339 338 337 337 337 337 334 335 337 337 336 335 334 332 331 331 330 326 324 324 325 330 333 333 332 333 332
341 341 340 341 341 341 340 340 340 340 340 339 339 339 339 338 338 338 336 336 337 335 332 331 332 333 332 332 332 330 329 328 325 320 321 325 324 331 332 332 331 331 331
339 340 339 338 339 341 341 341 340 339 339 339 339 339 339 338 337 337 335 334 335 335 333 330 331 331 331 331 330 328 328 325 317 316 318 322 324 329 329 328 328 328 328
336 338 338 340 339 338 339 340 339 339 339 339 338 338 338 337 336 335 334 333 333 333 332 332 331 329 329 330 328 326 325 321 315 315 317 318 327 327 327 325 325 324 325
333 332 331 331 335 336 336 337 337 338 338 338 337 337 336 335 334 333 333 333 333 332 331 330 329 329 328 326 326 325 322 319 309 312 316 318 326 325 325 324 323 323 322
322 325 325 328 330 331 332 335 336 336 336 336 336 335 333 333 333 332 331 332 332 332 331 330 328 327 327 325 322 319 316 313 307 309 311 319 325 323 323 322 321 320 320
320 317 320 324 329 328 329 334 335 336 335 334 333 333 328 325 325 321 328 330 331 330 329 327 324 322 321 320 318 313 309 302 306 308 310 325 323 323 322 321 319 318 317
318 321 323 323 326 328 329 328 328 330 327 327 327 324 322 322 320 324 327 327 330 328 326 324 319 316 310 305 304 305 299 299 301 307 311 321 319 321 320 319 317 316 316
318 317 318 319 321 327 325 324 324 323 323 323 323 322 322 320 321 321 316 315 314 316 310 309 307 305 303 302 301 299 299 298 298 300 307 317 319 318 319 317 316 315 315
317 317 318 319 319 325 324 323 322 321 321 320 321 323 322 317 316 315 315 313 310 309 307 306 304 302 301 301 300 299 298 298 297 298 300 311 316 314 318 315 315 313 313
318 319 318 319 325 325 323 322 321 320 320 321 321 322 323 318 314 314 314 310 308 307 305 303 302 300 299 299 298 298 297 297 297 298 297 308 316 316 317 314 312 313 311
317 320 324 325 325 323 321 321 320 321 322 324 323 323 323 320 315 314 310 307 307 305 304 302 302 298 297 298 297 297 297 296 296 297 299 305 317 318 315 312 311 311 310
319 320 323 325 322 320 319 320 320 322 324 321 321 323 321 319 315 309 307 307 306 303 302 300 300 298 297 297 295 295 296 296 295 296 298 303 305 312 312 310 310 308 307
321 322 324 327 320 319 319 321 322 323 322 320 319 317 316 315 312 307 307 307 304 304 301 299 298 296 295 295 294 294 294 295 295 295 295 297 301 299 303 306 305 304 303
318 319 322 322 318 319 320 319 319 320 319 318 316 314 313 311 309 308 310 308 305 303 301 300 297 296 295 294 294 294 293 293 293 295 294 294 295 295 295 302 305 304 303
319 321 320 320 319 318 317 316 316 316 315 314 313 312 311 310 309 307 307 306 303 301 299 298 297 296 295 294 296 294 292 292 292 292 292 293 293 293 293 294 295 296 300
318 318 319 319 317 317 315 314 313 312 315 312 311 311 310 309 309 307 305 303 302 300 299 297 296 295 294 293 292 292 291 292 292 291 291 291 291 292 292 292 292 291 291
318 318 320 319 317 318 319 314 314 312 312 313 311 309 309 309 308 306 304 301 300 299 298 296 295 294 293 292 291 289 287 290 291 292 290 291 290 290 291 291 291 292 291
317 317 319 319 318 319 318 315 310 311 311 310 308 307 308 309 308 305 303 300 299 298 296 295 295 294 292 293 293 291 286 285 287 290 289 289 289 289 289 290 291 291 291
317 318 320 319 318 318 316 316 311 310 309 310 308 306 309 307 306 304 302 299 298 297 296 296 296 294 294 292 292 294 293 291 286 285 288 288 288 289 289 289 290 290 290
317 316 318 318 318 318 317 316 312 310 312 308 306 308 307 304 303 302 300 298 297 296 295 295 294 294 296 292 293 292 289 288 287 286 284 286 288 289 289 289 289 288 288
314 315 316 317 317 318 317 315 313 312 310 308 307 305 302 300 300 299 298 297 295 295 293 294 294 293 293 292 293 290 289 288 288 285 283 283 284 287 288 288 288 287 287

GFSSE_sfc_thetae_051.txt.gz
Theta_e
342 346 346 348 348 346 345 344 343 343 343 343 342 342 342 343 342 342 341 341 341 342 341 343 346 344 341 340 339 339 338 339 340 340 337 336 336 335 335 335 338 338 340
343 345 345 346 346 346 344 343 342 342 342 342 343 342 342 341 341 341 341 341 343 341 341 341 343 342 341 338 338 337 337 338 337 336 335 334 335 335 334 334 336 332 335
343 345 345 345 345 344 343 343 342 343 342 341 342 342 341 341 341 341 340 342 346 344 344 341 343 343 340 337 337 336 335 334 335 335 334 329 331 334 334 333 333 333 333
344 344 344 343 343 343 342 341 342 341 341 342 341 341 341 341 341 340 339 341 345 346 344 343 343 342 338 337 336 334 334 333 332 333 329 329 329 333 333 333 333 333 333
343 343 343 342 341 341 340 340 341 341 341 340 340 341 341 341 341 340 338 338 340 344 344 344 342 337 334 335 334 333 332 331 331 329 328 329 330 331 333 332 331 333 332
341 342 341 340 340 340 340 341 341 340 339 338 339 340 341 340 340 339 337 336 338 340 340 339 334 332 334 333 332 329 329 328 328 326 327 329 328 330 330 330 329 330 329
340 341 341 338 338 340 341 341 340 339 338 338 339 339 339 339 338 337 336 335 335 336 336 334 333 332 331 330 329 328 326 326 324 324 325 327 327 327 327 327 326 327 326
337 339 338 339 338 339 339 340 339 338 338 338 338 339 338 337 336 336 336 335 334 333 332 332 333 332 330 328 325 324 323 323 321 323 324 325 326 326 325 325 324 324 324
329 330 336 335 336 336 337 337 337 338 337 338 338 337 336 335 334 334 334 334 333 332 332 330 329 329 329 326 322 321 320 319 320 322 322 323 325 324 323 323 322 322 322
326 325 324 327 327 328 334 335 336 336 336 336 335 334 333 333 333 333 333 333 332 331 331 330 329 326 323 321 318 316 315 317 318 319 320 323 325 323 322 321 320 319 319
321 323 323 322 323 327 331 336 336 336 335 334 333 332 328 326 326 326 330 332 331 330 328 326 323 321 320 318 314 312 314 315 316 317 318 324 323 323 321 319 318 318 318
316 317 319 321 323 326 330 333 333 333 332 331 330 329 328 328 326 325 328 330 329 327 325 321 317 315 314 310 309 311 309 310 311 313 316 320 320 321 320 318 317 317 317
317 319 320 320 321 323 325 329 331 330 330 329 329 328 327 327 328 325 326 324 324 321 315 314 312 310 310 309 309 309 308 308 308 309 310 315 319 321 319 317 316 316 315
317 318 319 320 323 326 327 328 328 327 327 327 327 329 326 326 326 322 322 319 318 316 314 311 310 311 309 309 308 308 308 307 307 308 308 313 318 317 319 316 315 313 313
315 316 318 318 317 324 327 327 326 326 326 328 328 329 326 324 323 321 320 316 315 314 313 311 310 309 308 307 307 306 306 306 308 309 311 317 319 317 318 314 316 313 312
316 318 320 319 322 327 328 326 327 328 328 328 328 330 328 323 322 321 317 316 315 314 313 311 309 308 307 307 306 306 305 306 308 311 314 315 317 319 315 313 312 311 310
320 320 320 321 325 328 328 326 327 326 326 327 328 327 328 326 322 321 317 316 315 313 311 310 307 308 306 305 305 305 305 305 306 310 313 312 313 313 314 311 310 307 307
321 321 323 325 327 327 327 326 325 327 328 328 328 329 330 328 323 320 317 315 312 309 309 307 308 306 306 306 305 305 304 304 304 305 311 311 309 310 307 305 305 304 302
321 322 324 328 328 327 327 326 327 328 329 330 327 326 325 324 322 320 318 313 310 309 309 309 308 308 306 305 304 305 305 303 303 302 302 304 305 307 306 304 305 303 302
322 324 326 328 329 327 326 326 326 326 328 328 326 324 322 321 319 318 317 313 311 311 310 309 308 307 306 305 302 303 305 303 303 304 302 301 303 303 303 303 304 303 301
322 324 325 327 328 325 324 323 322 322 324 324 321 322 320 318 317 317 316 313 313 311 310 309 307 306 305 305 304 303 303 302 301 302 301 301 301 301 301 302 302 301 300
322 323 324 326 327 326 325 324 324 324 323 325 322 319 319 317 316 315 315 313 312 310 308 308 307 305 305 304 303 301 299 299 300 301 301 300 300 300 299 299 299 298 299
322 323 323 325 326 327 326 324 321 322 322 319 319 319 317 317 314 314 315 312 311 310 307 307 307 306 303 303 303 299 296 294 297 300 300 300 300 299 300 300 299 298 298
324 324 324 325 325 326 325 322 321 321 320 321 319 319 317 316 312 311 312 311 309 308 307 307 306 305 303 301 302 301 302 300 293 292 299 299 299 298 300 300 299 299 297
326 324 325 325 325 325 324 324 323 321 323 318 317 316 316 313 311 310 311 309 308 308 308 306 305 303 302 300 299 300 300 299 299 295 291 294 298 299 300 299 299 298 296
325 324 325 324 324 325 324 324 321 320 319 317 317 316 314 313 312 311 308 308 308 306 304 300 299 300 299 297 299 299 297 295 294 294 292 293 294 296 298 297 297 297 296

GFSSE_sfc_thetae_054.txt.gz
Theta_e
343 346 347 348 349 349 348 347 346 345 344 344 344 344 344 343 343 344 344 344 346 348 347 344 344 340 339 340 339 339 338 338 339 339 337 337 336 336 336 337 338 339 340
347 344 345 347 348 347 346 345 344 344 344 344 344 343 343 343 342 343 343 344 345 347 345 343 340 338 337 337 336 336 335 336 336 337 338 335 335 336 335 335 336 333 335
346 344 346 345 345 345 345 344 344 344 344 343 343 342 343 343 343 343 345 344 345 346 345 343 338 337 337 336 336 335 335 334 336 334 337 330 332 335 335 334 335 334 334
346 345 343 344 344 344 343 343 343 343 343 343 342 342 342 343 343 346 346 346 345 346 345 342 338 337 336 335 335 334 334 333 334 336 329 329 330 333 334 334 334 334 333
344 344 344 343 342 342 342 342 342 342 342 341 341 342 343 342 342 343 344 344 345 346 343 340 337 335 335 336 334 332 331 332 333 329 329 330 329 330 332 333 332 331 332
344 344 340 340 340 341 342 342 342 341 339 340 340 341 342 341 341 341 341 344 345 345 341 335 333 333 333 332 331 330 329 329 330 326 328 329 328 328 329 328 327 327 327
344 343 341 338 339 340 342 342 340 339 339 339 340 340 340 340 339 338 339 341 342 340 336 332 331 330 331 330 327 327 327 326 324 325 326 327 327 327 327 327 326 326 325
340 342 340 338 339 339 340 339 338 338 338 338 339 339 339 339 338 337 336 336 336 336 335 333 331 330 328 326 324 323 324 325 323 323 325 326 325 325 325 325 324 323 323
333 336 335 336 338 337 336 337 336 337 338 337 337 337 336 336 336 335 334 334 333 333 334 332 330 328 326 322 321 320 321 321 321 322 323 325 324 323 323 323 322 321 322
328 330 330 329 336 337 336 336 336 336 336 336 336 335 333 334 334 334 333 333 332 331 330 328 328 326 321 319 318 319 320 321 319 319 322 324 324 323 321 321 320 320 320
323 324 323 324 321 326 330 333 335 336 334 333 332 331 328 327 328 328 330 331 331 331 328 325 323 320 319 316 315 316 317 315 316 317 319 325 323 322 320 319 319 319 318
318 320 322 319 317 324 329 328 332 333 330 328 328 328 326 328 328 328 330 330 329 327 324 321 319 320 320 317 314 316 313 313 312 313 316 320 322 322 320 318 318 317 316
317 318 319 320 324 323 324 323 328 333 330 329 330 328 328 327 327 327 327 324 324 323 318 317 318 317 317 316 314 313 312 311 311 311 312 316 320 322 320 318 317 316 315
316 318 318 320 322 320 324 323 324 325 328 327 327 329 328 326 326 328 326 326 324 323 321 319 318 317 315 314 313 311 311 310 310 311 311 315 319 321 319 317 315 314 313
315 317 317 319 319 323 323 323 327 328 326 326 328 328 328 327 326 326 326 325 323 322 320 318 316 315 314 314 312 311 310 311 311 312 315 319 317 319 318 316 315 314 312
317 317 316 317 318 320 322 324 326 328 327 328 328 329 329 328 328 325 325 323 321 320 320 319 318 316 315 314 311 310 309 310 311 314 315 316 318 320 316 314 313 312 311
318 319 315 320 323 324 326 326 328 327 326 326 328 333 330 328 329 327 324 320 320 321 320 318 317 316 314 312 310 310 309 309 310 312 314 316 315 313 315 313 311 308 307
322 320 321 321 324 326 329 328 326 326 326 327 331 333 332 331 328 327 324 324 323 321 318 312 315 316 314 313 311 311 311 310 309 310 314 315 315 313 308 306 305 304 303
324 323 323 324 325 327 331 331 327 329 328 327 331 332 332 334 332 328 325 325 323 314 313 313 316 316 313 312 310 312 312 310 308 306 309 311 311 309 307 306 304 303 303
325 324 323 326 328 331 331 331 328 326 328 330 332 331 331 333 333 330 327 325 318 317 313 314 314 315 314 313 307 309 312 309 308 307 306 305 306 307 306 305 306 305 302
325 325 326 327 329 331 329 327 326 323 326 329 331 332 329 330 330 330 327 323 319 315 315 315 314 313 311 312 311 311 310 309 307 306 306 305 305 305 305 304 304 304 303
324 326 326 327 330 331 330 328 326 324 326 329 331 328 328 327 327 326 325 321 320 317 313 314 315 312 312 312 311 308 306 307 306 306 306 305 305 305 304 303 304 303 303
323 325 327 329 331 332 332 330 327 327 327 327 327 327 324 324 324 323 324 321 321 316 311 314 315 313 310 310 309 307 304 302 303 306 305 305 305 304 304 303 304 303 303
325 326 327 328 329 332 333 329 326 322 321 325 327 326 324 323 322 323 322 320 317 315 315 315 314 314 311 307 308 306 305 304 300 299 304 304 304 303 303 303 304 304 303
327 327 328 328 328 330 332 332 328 324 324 328 328 326 323 322 324 320 318 317 316 317 316 315 313 312 306 301 302 301 303 304 303 299 295 298 301 302 303 303 303 302 302
332 331 331 329 328 330 331 332 331 328 327 328 326 325 324 323 322 318 314 314 316 316 315 314 311 303 302 301 301 300 303 301 299 297 296 297 297 299 301 301 300 300 300

GFSSE_sfc_thetae_057.txt.gz
Theta_e
344 345 348 351 351 350 349 348 347 346 346 346 345 345 345 345 346 346 346 348 348 348 344 342 340 340 340 339 339 338 338 340 340 340 338 337 337 337 337 339 338 337 340
345 345 346 349 350 349 349 347 346 345 345 345 345 345 344 345 345 345 347 348 348 346 341 339 338 337 337 336 336 335 335 336 338 339 339 336 336 336 336 335 336 334 336
344 344 348 347 348 348 347 346 345 345 345 345 344 344 344 344 344 345 346 347 346 345 339 338 337 337 337 336 335 334 334 335 335 336 340 329 331 335 336 336 337 334 334
345 343 347 345 346 346 345 344 344 344 344 344 344 344 344 344 346 345 345 345 346 344 339 338 337 337 336 335 334 334 333 334 333 335 329 328 329 335 335 333 334 334 334
344 342 346 343 343 344 343 343 343 343 342 342 343 344 344 347 347 347 345 344 345 343 338 337 336 335 334 334 333 332 332 333 334 329 328 328 327 330 331 330 329 330 331
346 342 341 340 341 343 343 343 342 342 341 341 342 343 345 346 347 346 344 344 344 341 336 335 333 331 332 332 331 329 330 331 332 327 327 327 326 328 329 328 327 327 328
346 343 344 338 340 342 343 342 341 340 340 341 341 341 342 342 344 345 343 343 341 338 334 332 330 329 329 328 327 327 328 327 325 326 325 325 325 326 327 326 325 326 325
339 339 338 339 339 339 340 340 339 339 340 340 340 339 340 339 341 342 341 338 337 335 334 331 330 328 326 325 324 324 325 326 324 325 325 323 324 325 325 324 323 323 323
337 335 336 336 338 337 336 336 336 338 338 339 338 338 337 336 336 337 337 337 336 334 332 330 328 326 323 322 321 321 321 323 322 323 324 323 323 323 323 322 322 322 321
333 332 332 333 334 334 335 334 335 334 336 336 336 335 334 334 334 333 333 334 335 333 331 327 325 322 321 320 319 320 320 322 319 321 323 323 323 322 322 321 321 321 320
326 329 332 331 332 332 335 334 333 335 335 333 333 332 329 328 326 328 331 331 331 330 329 325 322 320 320 318 318 316 320 316 316 318 321 326 323 322 321 320 319 319 319
318 320 324 327 327 328 326 328 328 330 331 330 329 331 327 328 328 327 330 330 329 328 326 323 322 321 320 317 315 317 314 314 313 314 318 324 323 321 320 319 318 317 317
320 318 318 320 321 324 323 325 326 328 328 327 330 330 331 330 331 328 326 324 323 323 317 317 317 320 320 318 316 315 313 312 311 312 313 319 322 322 320 318 317 316 316
316 316 319 322 322 321 320 319 322 325 327 328 328 332 332 329 330 328 324 323 324 322 321 323 321 320 318 317 315 314 313 312 312 312 312 318 320 322 320 318 316 314 313
315 317 318 319 319 319 317 319 320 319 321 323 328 330 329 327 329 328 328 326 325 324 323 322 320 318 318 316 314 312 311 312 313 313 316 319 317 321 319 319 316 315 312
315 316 317 318 320 320 318 320 321 327 326 326 328 329 333 331 331 328 327 325 325 324 323 322 321 319 317 316 313 311 311 311 312 314 315 315 319 322 318 315 315 314 313
314 315 316 317 320 320 319 321 324 327 326 326 326 333 330 330 330 329 326 326 324 324 324 323 320 320 317 315 313 311 311 311 311 312 312 315 314 315 316 314 312 310 308
317 315 317 319 320 321 320 322 325 326 326 323 327 329 332 330 330 329 327 325 325 325 322 321 319 319 318 315 314 312 312 310 310 310 313 313 314 314 312 311 308 304 303
321 319 319 321 322 323 325 325 327 329 326 326 327 330 333 332 330 328 326 327 328 324 322 318 319 321 317 314 312 312 313 312 310 308 309 311 312 308 308 310 307 304 303
321 320 321 323 325 327 328 327 325 325 327 326 326 329 332 332 334 330 328 329 327 323 319 318 318 318 318 314 309 309 313 313 311 310 308 308 308 308 308 307 306 306 306
324 323 323 324 327 325 324 323 323 321 324 325 327 331 333 332 333 333 331 329 326 321 320 319 317 317 315 314 312 312 313 314 312 309 309 308 307 307 308 306 305 305 304
323 323 322 322 324 325 324 324 324 324 323 326 328 331 333 332 332 331 331 329 326 322 320 318 317 314 315 315 311 311 307 310 308 309 308 308 308 307 307 306 305 305 304
324 324 323 325 326 327 328 327 325 325 324 323 325 328 331 329 325 324 325 327 325 324 319 318 316 314 312 313 313 310 305 303 306 310 308 308 308 307 306 306 305 305 305
324 326 326 326 327 328 330 327 326 322 320 322 325 327 329 324 323 322 321 323 327 325 320 316 315 316 316 312 312 311 309 305 301 301 307 307 307 305 306 305 305 305 305
326 327 328 328 329 330 330 330 327 325 324 325 326 328 328 326 325 323 323 323 325 321 317 315 316 318 315 313 305 302 302 305 306 302 299 301 304 304 304 304 304 304 303
328 329 330 328 327 329 330 331 331 329 327 324 325 328 326 326 325 325 324 321 320 317 315 316 320 317 309 306 306 302 299 301 302 301 299 299 299 301 303 303 303 302 302

GFSSE_sfc_thetae_063.txt.gz
Theta_e
343 349 348 350 350 349 348 348 347 346 347 347 347 347 347 348 349 348 347 345 345 344 340 339 338 338 339 340 339 340 341 340 339 339 339 337 337 337 337 337 335 334 339
330 342 345 348 350 349 349 347 347 346 347 347 347 346 346 348 348 347 345 344 343 340 339 337 335 337 338 338 338 340 340 338 337 337 336 336 338 338 337 336 337 331 335
329 331 343 346 349 349 348 347 347 347 347 347 347 346 348 348 347 345 343 342 342 339 338 336 335 336 336 336 337 337 336 337 336 337 334 325 327 336 336 334 335 335 335
331 330 330 344 346 348 347 346 346 347 347 346 346 347 348 347 345 344 342 341 341 340 337 335 334 335 334 333 334 335 334 333 332 330 324 323 325 332 332 331 331 331 332
328 339 341 343 345 346 346 345 345 345 344 344 344 347 348 347 345 343 341 340 341 338 335 334 333 332 331 332 332 331 333 331 329 325 320 321 323 327 330 329 329 329 330
335 343 342 342 344 345 345 345 344 343 342 342 343 346 348 347 344 342 340 340 339 336 333 331 330 328 330 330 329 330 330 329 325 318 318 323 321 328 328 327 326 326 327
341 341 341 341 343 344 345 344 343 342 342 342 343 345 346 346 343 341 339 338 337 335 331 329 327 326 328 327 328 329 330 326 319 317 317 317 320 327 327 326 325 325 326
334 334 335 339 342 342 342 341 341 341 342 343 343 344 345 344 341 340 338 336 335 333 331 327 327 326 326 326 326 326 327 325 320 317 316 317 324 326 325 324 323 323 324
329 331 331 330 330 331 335 336 337 339 340 341 342 342 341 340 338 337 336 335 334 332 329 326 325 325 325 324 324 323 324 324 317 317 318 316 324 324 324 323 323 323 322
330 328 328 329 328 326 326 330 331 334 335 337 338 339 337 336 336 335 334 333 332 330 327 324 325 323 322 320 319 319 322 323 316 316 316 318 323 323 323 323 322 322 321
328 328 327 327 326 324 325 327 330 334 333 332 333 332 330 330 330 329 331 331 331 329 327 326 324 321 319 317 319 322 317 316 316 316 316 325 323 323 322 322 321 321 320
324 326 327 325 323 323 324 325 327 329 327 326 325 325 325 326 327 328 330 330 329 327 326 325 322 320 316 308 308 312 305 314 316 316 318 325 322 322 321 320 320 319 319
320 324 324 324 323 322 321 322 321 322 325 325 323 324 324 325 324 323 322 321 320 321 316 317 315 311 310 308 306 305 305 308 310 315 322 325 323 322 321 319 318 317 317
317 320 321 322 320 318 321 320 323 324 323 324 324 324 322 321 319 318 317 316 314 314 311 312 314 310 309 308 306 305 305 304 304 310 319 323 324 321 321 319 318 317 316
316 317 318 320 320 320 320 321 322 322 323 324 325 325 323 321 318 319 317 315 315 315 311 313 312 311 308 307 306 305 305 304 304 307 312 321 323 323 321 319 317 316 314
315 315 316 316 318 318 318 320 320 320 321 323 324 324 325 323 320 318 317 316 316 316 316 313 312 310 308 306 304 304 305 305 307 307 311 313 320 323 322 320 319 317 315
315 315 315 315 317 316 315 316 316 318 318 319 323 324 324 324 322 319 320 318 318 317 316 313 312 311 308 307 305 305 304 305 305 308 309 311 316 321 320 322 318 316 314
315 314 316 318 316 315 315 315 316 315 316 316 322 322 322 324 323 321 320 319 320 319 316 314 312 311 309 307 304 303 303 303 303 303 308 309 309 311 316 319 318 314 312
313 315 315 316 315 314 314 315 315 314 317 314 320 321 321 323 325 322 320 320 319 317 315 315 313 312 310 308 305 303 302 302 302 304 305 306 308 308 308 315 315 314 311
312 314 314 315 314 314 313 313 312 315 316 318 318 320 323 323 325 322 321 320 320 316 315 312 311 311 312 309 308 306 303 303 302 301 301 303 303 305 306 306 306 305 311
311 313 314 313 313 314 312 311 311 313 316 317 318 320 324 325 324 323 322 322 320 317 314 312 311 310 310 310 306 305 305 304 302 302 301 300 301 301 301 303 301 298 302
311 313 314 313 313 312 313 313 313 315 317 320 319 319 325 326 327 325 324 323 322 318 313 312 311 308 310 311 305 305 302 303 303 303 301 301 300 301 300 301 299 298 298
312 312 314 314 314 313 313 314 316 318 317 317 318 318 323 326 326 326 325 324 322 319 316 313 312 310 308 310 308 306 301 299 298 301 302 303 302 300 299 300 300 299 298
312 314 315 316 317 316 317 315 315 316 314 315 316 317 322 325 325 324 323 323 322 321 319 316 314 312 310 308 309 308 303 300 297 295 300 303 301 303 299 299 299 298 298
313 315 316 316 316 317 318 319 318 316 316 316 316 316 319 323 323 322 321 318 318 317 315 316 314 313 312 310 307 302 301 302 301 297 296 298 301 301 299 298 298 298 298
314 315 316 317 316 317 318 319 318 316 316 316 316 316 320 323 324 321 321 320 319 319 317 313 313 312 310 305 304 302 301 299 299 297 296 296 296 297 298 298 298 297 296

GFSSE_sfc_thetae_066.txt.gz
Theta_e
343 346 348 350 350 349 348 347 346 347 347 348 349 349 349 348 347 346 345 344 344 343 339 340 342 341 340 340 338 340 340 340 339 339 338 337 337 337 336 335 337 335 340
344 347 346 349 349 349 347 347 346 346 347 347 348 348 347 346 346 345 344 343 342 340 338 340 340 340 340 338 339 340 338 337 336 337 338 338 337 336 336 335 334 333 338
335 346 347 347 349 349 348 347 347 347 347 347 348 348 347 346 345 343 343 341 341 339 338 339 339 338 338 337 337 339 338 336 335 334 332 326 328 334 334 334 335 335 336
330 330 341 346 346 346 345 347 347 347 347 347 348 347 346 345 344 343 341 340 340 338 336 338 337 336 333 332 335 338 334 331 331 328 322 322 325 331 331 331 331 333 334
328 329 332 344 344 344 344 345 346 345 345 346 347 347 346 344 343 342 340 339 339 338 336 336 335 331 330 333 334 333 332 330 329 323 318 319 322 327 329 329 329 332 330
330 334 338 342 343 344 340 344 345 344 343 345 346 346 345 344 343 341 339 338 338 336 333 332 330 329 330 333 332 331 330 327 323 316 316 323 321 328 328 327 328 329 328
338 340 339 338 337 343 344 344 343 343 342 345 345 344 343 343 342 340 338 337 336 333 329 328 327 329 329 332 331 329 327 325 317 314 316 317 320 327 327 326 326 325 324
332 330 329 331 327 328 342 342 339 340 342 343 344 342 342 341 340 338 337 335 334 331 329 326 328 328 328 330 330 327 326 324 318 315 315 317 324 325 326 325 324 323 322
331 328 329 327 327 328 327 337 338 340 341 341 341 340 339 338 337 336 335 334 332 330 328 326 327 327 326 325 328 326 324 323 315 316 317 316 325 325 325 324 323 322 322
327 329 329 326 325 325 324 327 328 334 338 338 338 337 336 335 335 334 333 332 331 329 327 326 325 325 324 325 327 325 324 321 314 314 314 318 324 324 324 324 322 322 320
327 326 327 325 324 324 325 325 324 327 335 336 335 334 331 330 328 327 330 330 329 328 326 325 324 322 319 322 325 324 321 314 313 314 315 325 323 324 323 322 321 320 319
323 324 324 323 323 324 326 325 323 329 329 329 329 328 328 326 325 326 328 328 328 327 325 323 322 320 314 306 309 316 312 314 314 314 317 325 323 323 322 321 321 319 318
321 324 322 322 323 323 322 323 325 326 325 325 324 326 326 326 324 323 322 321 319 320 314 313 312 310 307 305 304 306 311 313 314 315 321 325 323 322 321 320 319 319 316
318 322 322 322 321 321 323 322 322 324 323 323 324 325 323 321 319 318 317 315 312 310 311 311 310 307 306 305 304 305 306 309 311 314 320 324 324 322 321 320 319 317 316
316 319 319 320 319 319 318 319 321 322 323 323 322 323 321 319 316 315 313 312 311 309 311 311 309 307 306 305 304 304 303 306 310 313 314 323 323 323 321 320 319 317 315
315 316 319 319 320 321 319 320 321 322 323 323 322 321 319 318 316 314 312 311 311 311 313 311 310 308 305 303 302 303 303 303 305 309 312 316 322 323 322 320 319 317 316
315 316 317 318 319 319 319 319 320 321 323 322 322 322 321 319 317 315 312 312 312 314 313 311 310 309 306 305 303 303 303 304 305 306 309 311 315 321 322 323 320 318 317
315 315 317 319 318 317 317 316 317 316 317 320 323 323 322 321 319 316 316 315 316 315 313 311 311 309 306 305 302 302 302 302 304 305 307 309 311 313 318 322 320 318 316
315 315 315 316 315 316 316 316 315 314 315 315 321 321 321 321 321 318 318 318 317 315 313 312 310 310 307 305 303 302 301 301 301 304 306 306 308 309 310 318 318 317 315
315 316 316 315 315 314 314 314 313 315 316 317 317 319 319 319 322 320 319 318 316 315 312 312 310 310 310 308 307 304 301 301 300 300 303 306 306 307 307 308 308 308 314
313 314 314 314 313 312 311 312 311 310 313 316 315 317 320 320 323 320 319 319 317 315 314 311 310 309 308 308 305 304 304 303 300 300 299 299 302 304 305 305 303 302 304
311 312 312 312 312 312 312 312 311 309 311 314 315 316 319 321 322 322 321 320 318 315 313 311 310 308 308 309 304 304 300 302 303 303 300 300 298 300 301 303 301 300 297
309 311 312 312 312 312 312 311 310 311 313 313 315 316 317 321 323 321 320 321 321 319 314 313 312 310 307 310 308 306 300 300 301 303 303 302 300 299 300 299 299 299 298
309 312 313 312 312 313 313 311 309 310 310 313 314 315 315 321 322 323 322 321 320 320 316 313 313 311 310 308 309 306 303 302 298 298 303 303 301 301 301 300 300 298 297
311 311 313 313 312 313 312 311 310 311 313 316 316 315 315 319 322 323 323 322 322 321 318 316 312 311 311 308 308 303 302 302 302 299 297 299 301 302 302 301 300 299 297
312 312 313 312 312 313 312 312 311 312 314 315 314 314 315 318 321 322 322 321 318 318 315 314 313 311 309 309 308 304 303 301 300 299 297 298 297 299 299 299 300 300 298

GFSSE_sfc_thetae_069.txt.gz
Theta_e
343 345 348 349 349 348 347 347 347 347 347 348 348 348 348 348 347 346 346 345 344 344 341 341 341 339 339 339 339 339 340 339 338 338 337 337 338 337 337 338 339 335 340
342 345 347 348 348 348 347 347 347 348 349 349 348 347 346 346 345 345 344 343 343 343 341 341 340 339 339 338 337 337 336 338 338 339 338 337 335 334 335 335 339 335 337
344 345 347 347 348 347 347 347 347 348 349 348 347 346 346 345 344 343 342 341 343 343 341 340 339 339 338 336 337 335 333 333 334 334 333 325 328 335 336 336 337 335 335
334 343 345 346 346 345 345 345 346 347 348 348 347 346 345 344 343 342 340 340 342 342 340 339 338 337 337 338 336 333 332 330 329 328 321 323 327 333 334 334 333 332 332
330 329 343 345 344 344 342 342 341 343 346 346 346 345 344 344 343 341 339 339 341 341 338 335 332 334 335 337 334 332 330 329 327 322 317 319 322 329 331 331 330 330 329
332 329 333 340 341 341 341 342 343 342 344 345 344 344 344 344 342 340 338 338 340 339 334 330 332 335 334 333 332 329 328 326 323 315 316 323 321 328 330 328 327 327 325
330 333 334 332 330 330 331 338 343 341 343 344 344 343 343 342 341 339 337 336 337 336 331 331 335 334 333 331 330 328 327 324 317 314 316 316 320 327 328 326 325 324 324
331 333 330 330 328 329 328 332 338 337 342 343 342 341 341 340 339 337 336 334 333 332 330 331 333 333 331 330 328 327 326 324 317 314 315 317 324 327 327 325 324 322 322
328 328 327 326 327 327 328 328 336 334 339 340 340 339 339 337 336 335 334 332 331 329 329 328 329 332 330 329 328 326 324 323 314 315 317 317 325 326 326 324 323 322 321
328 326 325 326 324 324 324 327 331 332 338 338 338 337 336 335 334 333 331 330 328 327 328 327 327 328 330 327 326 325 323 321 312 313 314 319 325 326 325 324 322 321 320
325 327 325 324 323 324 324 325 324 326 337 336 337 335 331 329 327 324 327 328 327 327 326 325 324 328 327 326 325 324 319 313 313 314 315 325 324 325 324 322 321 320 319
321 323 324 323 323 323 325 324 321 324 329 332 331 330 327 324 323 324 327 327 326 325 325 325 321 321 321 318 320 318 312 312 313 314 316 325 323 324 323 321 320 319 318
322 322 322 323 323 323 321 322 323 325 327 327 327 326 324 324 324 322 319 317 316 316 312 312 308 306 305 308 309 310 312 312 312 314 321 324 323 323 322 321 319 318 317
321 320 321 323 322 322 321 319 321 325 326 325 326 325 323 321 319 317 315 312 310 311 311 308 306 304 303 306 308 309 310 311 311 313 319 324 324 322 321 321 320 317 316
319 320 320 321 321 321 320 320 322 322 323 325 325 323 321 318 316 314 311 309 310 310 310 308 305 304 302 302 304 306 309 310 312 313 314 323 323 322 321 321 320 318 316
317 319 320 320 320 320 319 319 322 322 322 323 323 321 320 317 315 312 309 309 310 310 310 308 306 304 302 302 301 302 304 308 310 312 313 316 322 323 322 320 319 318 316
315 317 318 319 320 319 318 319 321 322 323 322 321 319 318 317 314 311 310 310 310 311 310 308 306 305 302 302 301 302 302 303 306 309 311 312 317 321 322 322 319 318 318
315 316 318 320 319 319 318 318 319 319 321 321 320 319 317 317 315 312 311 312 312 312 311 309 307 306 303 302 300 300 301 303 303 304 308 310 312 315 320 322 323 320 318
315 316 317 318 318 318 318 317 316 315 318 320 321 319 317 317 317 314 314 313 314 313 311 310 309 307 304 303 301 300 299 300 303 305 304 306 308 311 311 318 321 319 319
315 316 316 317 317 316 316 316 314 315 315 317 320 319 320 318 319 317 316 316 315 314 312 311 309 308 306 305 305 302 299 299 299 300 303 305 307 308 309 310 312 311 316
315 314 314 315 315 315 315 315 313 311 312 315 316 319 319 320 321 318 318 317 315 314 312 311 309 308 307 307 303 301 301 301 300 298 298 302 304 306 306 306 306 304 307
314 314 314 313 313 314 314 314 314 311 312 314 315 316 318 319 319 319 317 317 315 313 313 311 309 307 307 307 305 301 297 300 302 300 300 298 301 302 304 305 304 303 300
312 313 311 312 311 311 310 312 311 311 312 312 313 314 314 317 319 319 319 319 317 315 313 311 311 310 308 309 307 306 301 299 301 303 302 301 300 300 300 301 302 303 300
308 310 311 311 310 310 310 308 308 309 307 308 308 310 311 316 319 320 319 320 319 318 316 314 314 310 309 307 308 307 306 304 299 299 303 303 303 302 300 298 300 301 300
308 309 310 311 311 311 310 309 307 306 308 308 309 310 311 313 317 319 320 318 318 319 318 315 311 311 311 308 308 304 303 302 303 301 299 301 303 303 303 301 301 300 300
307 308 310 311 311 312 311 310 308 308 308 309 310 312 313 313 315 318 320 320 319 318 316 316 314 311 310 307 307 304 303 302 301 301 299 299 299 300 300 300 300 300 300

GFSSE_sfc_thetae_075.txt.gz
Theta_e
343 347 348 350 350 349 349 350 349 349 349 350 349 349 349 349 349 349 349 349 348 347 346 345 346 344 343 342 342 342 342 342 342 342 343 342 342 342 341 340 340 336 340
344 348 346 348 349 348 349 350 349 349 350 350 349 348 349 349 349 348 348 348 347 346 344 343 343 342 340 339 340 340 339 338 338 339 340 341 340 340 339 337 339 335 336
346 347 347 347 348 348 349 350 350 350 350 349 349 348 349 348 348 347 346 345 345 345 342 342 341 341 339 338 339 339 338 338 337 337 337 335 336 337 336 334 333 333 333
344 347 346 346 347 348 348 348 349 350 350 349 349 348 348 347 346 346 344 343 343 343 339 339 339 339 338 337 336 334 334 333 333 334 333 333 333 335 334 333 332 332 331
334 343 345 345 344 344 345 347 348 348 347 347 347 347 347 346 345 344 342 342 342 342 340 338 338 337 336 336 335 334 332 330 331 330 332 332 330 331 331 329 328 327 328
335 338 339 339 340 339 340 343 344 346 345 345 345 346 346 345 345 343 341 341 341 341 340 338 336 334 334 333 333 332 330 329 329 328 328 329 327 329 328 327 328 326 326
335 336 336 337 338 338 336 335 335 342 342 343 344 344 343 344 343 342 341 340 341 342 341 339 335 333 332 332 331 329 328 328 326 327 327 327 326 328 327 327 325 325 324
334 334 335 337 337 336 334 333 333 337 338 340 341 342 342 342 340 341 340 338 337 338 339 339 334 332 331 330 328 328 327 326 325 326 326 324 327 327 327 324 324 323 323
332 332 332 333 335 334 332 332 333 336 338 339 340 339 339 338 338 339 337 336 337 338 337 336 333 331 330 329 328 326 325 326 325 325 322 325 326 326 326 324 323 322 322
327 327 329 330 330 329 330 329 332 335 336 337 338 338 336 336 337 335 334 336 338 337 335 333 331 330 329 328 326 325 324 325 324 324 324 324 326 326 326 324 323 322 321
325 326 327 326 327 328 329 329 332 336 336 336 337 335 333 334 334 331 330 334 336 334 333 331 330 329 327 326 326 324 324 323 324 324 324 327 327 326 325 323 322 321 320
322 324 327 329 327 326 327 328 330 331 335 334 333 331 330 330 328 326 329 331 334 332 331 330 329 327 325 323 323 322 322 323 323 324 324 327 326 325 324 322 321 320 319
325 325 325 324 324 324 326 325 328 330 330 330 329 328 325 327 327 325 324 327 331 332 328 326 326 323 323 322 321 322 323 323 323 323 324 326 325 325 324 322 320 319 318
324 324 325 324 324 326 323 324 327 325 328 327 326 325 325 323 321 319 319 320 324 329 329 326 323 323 320 320 321 321 322 322 322 322 324 325 326 324 324 322 321 319 317
322 323 323 324 323 323 324 323 327 326 324 324 324 323 323 318 316 316 316 316 317 320 322 320 320 320 319 319 320 320 321 321 323 322 322 324 325 324 323 322 321 319 317
323 322 323 323 323 322 321 322 325 325 323 324 323 321 320 316 314 313 313 313 314 317 318 318 319 319 318 318 319 320 320 321 322 322 322 323 323 324 324 322 320 319 317
320 322 322 324 322 321 320 322 324 325 324 322 322 322 320 316 315 315 315 315 315 314 313 314 317 318 317 316 317 318 319 320 321 322 322 322 322 322 323 324 321 320 318
318 320 322 323 321 319 320 323 323 324 325 322 321 320 319 316 317 316 317 316 316 315 313 311 311 312 313 313 314 316 317 319 320 321 321 322 322 320 321 323 323 321 320
317 320 320 321 319 319 320 324 323 322 322 320 319 318 318 317 318 318 318 318 318 316 315 312 310 311 309 310 310 311 312 314 317 318 319 321 322 321 321 321 322 322 322
318 319 320 319 319 319 321 321 320 320 321 320 318 316 316 316 316 317 316 315 317 316 315 314 313 314 311 309 306 307 310 311 312 312 315 317 320 321 322 321 321 320 320
317 318 318 318 318 318 318 318 318 318 319 319 318 317 317 315 317 315 315 316 319 318 317 317 316 315 313 312 309 309 309 309 309 309 310 311 311 315 319 318 319 320 320
314 316 317 317 317 318 318 321 320 318 320 320 319 317 317 316 316 316 319 320 319 320 318 317 317 315 316 313 311 311 309 311 310 309 308 308 308 311 309 312 314 315 317
312 313 315 316 317 318 318 316 315 316 317 317 317 317 317 317 317 318 320 321 322 322 320 318 317 317 314 314 315 315 306 306 309 308 308 305 305 308 311 311 311 312 313
314 315 318 317 317 318 318 316 315 313 312 315 317 317 318 318 319 321 321 321 323 322 322 321 319 319 318 315 315 312 313 315 310 307 311 311 308 306 305 305 306 309 313
314 315 316 317 317 317 319 319 315 315 316 318 316 316 318 318 318 320 321 323 323 323 323 322 319 318 320 318 312 309 309 310 311 310 308 313 310 310 309 309 304 306 308
313 315 314 316 317 316 317 318 318 315 316 314 314 314 315 317 318 320 321 323 324 325 324 324 323 321 320 315 318 318 316 314 312 310 309 310 307 311 310 310 308 307 305

GFSSE_sfc_thetae_078.txt.gz
Theta_e
345 348 347 350 350 350 352 350 349 349 350 351 350 349 348 349 349 350 350 349 349 349 347 346 345 345 345 344 344 343 344 344 343 344 344 344 343 343 341 342 341 339 340
347 348 347 349 350 350 352 350 349 349 350 351 349 348 349 349 349 350 349 348 347 347 346 346 345 344 343 341 341 341 342 342 342 342 343 341 341 340 339 338 339 336 337
348 349 348 348 349 350 351 350 350 351 351 350 349 349 349 350 350 349 348 347 346 346 345 344 342 341 340 340 341 340 340 339 340 341 342 337 336 338 337 335 335 335 334
346 349 348 347 347 349 350 350 350 351 350 349 349 349 350 349 349 348 347 345 345 345 343 343 342 340 338 338 338 337 336 337 337 338 337 334 333 335 335 334 333 332 332
341 351 347 346 346 347 347 349 349 349 348 348 348 349 349 348 347 346 344 343 343 344 342 341 341 338 336 336 336 335 334 334 335 335 332 333 331 331 332 330 330 330 330
336 346 342 343 343 345 345 346 343 347 346 346 347 348 348 347 346 344 342 341 342 342 341 339 338 337 335 335 334 332 332 332 334 333 328 331 329 330 330 328 327 327 327
342 341 344 339 340 341 343 343 342 343 343 344 345 346 346 346 345 343 341 340 340 340 340 337 336 334 334 333 332 331 330 331 329 330 329 328 329 330 328 327 326 326 326
340 341 344 340 340 340 340 338 338 342 340 343 341 343 344 344 343 342 340 340 341 339 338 336 334 333 332 331 330 329 328 329 329 328 327 328 328 328 327 326 325 325 324
338 340 341 344 337 334 333 334 336 337 340 340 339 339 340 340 340 340 339 340 340 339 337 334 333 332 331 330 329 328 327 330 328 327 326 326 327 326 327 325 324 324 323
332 333 335 340 337 338 338 329 333 337 335 336 338 338 337 337 338 337 337 339 339 338 336 333 332 331 330 328 327 326 326 328 326 326 326 326 327 327 326 325 324 323 323
327 328 330 330 334 335 334 333 331 334 335 335 336 336 334 337 335 335 334 336 337 336 334 332 331 329 328 327 326 325 326 325 326 325 326 327 327 327 326 324 323 323 322
325 327 327 329 330 332 331 333 336 337 337 335 336 334 334 333 331 334 336 334 334 332 331 331 329 327 325 325 325 324 325 326 326 326 326 327 327 326 325 323 322 321 321
329 326 328 328 330 328 328 330 332 335 334 334 333 330 332 331 333 335 336 335 333 329 326 327 326 324 324 323 323 324 325 326 326 326 326 327 326 325 324 323 321 320 319
330 330 330 327 329 328 326 327 330 332 333 333 329 327 325 327 329 332 333 332 330 329 327 326 324 326 325 324 323 324 324 324 325 325 326 326 326 325 324 322 321 320 319
328 331 331 331 330 330 330 329 328 328 330 325 325 325 324 322 323 325 330 331 330 330 328 327 327 324 323 323 323 323 323 324 325 325 325 325 325 325 324 323 321 319 318
328 327 330 328 328 328 327 328 327 325 324 323 322 320 321 321 321 321 322 323 328 330 329 327 325 322 320 321 322 323 323 324 325 325 325 325 324 324 324 323 321 320 318
326 326 326 328 327 325 326 325 325 326 324 320 319 320 320 321 321 319 319 319 321 326 326 326 324 322 319 320 320 321 322 323 324 325 324 324 324 322 324 324 322 320 318
324 326 326 328 324 325 325 327 324 324 323 321 318 317 318 319 320 318 317 317 319 320 322 322 322 319 319 318 318 319 321 322 323 324 324 324 323 322 322 323 323 322 319
323 325 325 324 322 321 324 324 324 322 321 321 319 317 318 319 319 318 318 319 320 318 317 318 319 318 316 317 317 318 319 320 322 321 322 323 324 323 322 322 323 322 322
322 324 325 322 321 321 322 323 322 321 320 320 319 317 317 317 322 322 319 320 319 317 316 316 316 316 316 315 312 314 317 318 319 320 320 320 321 322 323 323 322 321 321
321 322 322 319 320 321 321 321 319 318 318 318 319 319 319 318 321 321 321 321 321 318 319 318 317 317 316 316 313 313 314 315 316 315 317 318 319 321 323 323 322 321 319
319 320 320 319 319 321 323 324 322 320 320 319 318 318 317 318 318 319 321 322 322 321 318 319 320 319 320 317 314 316 312 313 313 314 314 314 316 314 315 320 321 321 320
318 319 318 320 319 320 322 323 321 321 320 317 317 316 318 318 319 318 320 321 320 322 320 321 320 319 317 318 318 317 310 310 313 316 314 311 313 312 311 315 317 318 318
320 319 319 320 319 320 321 321 321 319 315 318 316 317 317 318 318 320 321 323 323 323 323 323 322 322 322 318 317 317 321 318 310 313 318 312 310 307 308 312 312 315 315
322 316 319 321 320 320 320 322 321 318 319 321 318 317 317 318 320 319 320 321 322 325 325 326 325 323 323 322 321 320 319 313 312 311 313 316 317 316 316 311 315 314 313
322 321 320 319 319 322 319 320 320 318 316 317 316 316 316 316 316 319 319 323 323 325 325 327 328 326 325 324 325 322 319 315 317 316 315 317 315 313 317 315 319 316 313

GFSSE_sfc_thetae_081.txt.gz
Theta_e
346 347 349 350 349 350 352 350 349 350 350 351 351 349 349 350 350 350 350 349 349 349 346 346 347 346 346 346 344 346 345 345 344 344 344 343 343 343 342 343 341 338 340
348 349 347 350 350 352 352 350 350 350 351 351 350 349 349 350 350 350 350 349 349 349 347 346 346 345 345 344 344 344 344 343 342 342 343 342 341 341 340 340 340 337 337
347 348 348 349 350 352 352 351 350 351 351 351 349 349 349 350 350 350 348 347 347 347 346 346 344 343 342 341 342 343 343 342 341 341 341 336 336 339 338 337 337 336 335
348 347 349 347 349 351 351 350 350 351 351 350 349 349 350 350 350 349 347 345 346 345 345 344 343 342 340 340 340 340 340 341 341 340 335 334 333 337 336 335 335 334 334
347 349 349 346 347 349 350 350 350 349 349 348 348 350 350 350 349 348 345 344 344 345 343 343 341 339 338 338 337 337 336 336 337 334 333 332 331 332 334 333 332 332 333
345 349 345 343 345 347 349 348 347 345 344 346 347 349 350 349 349 347 345 344 344 345 343 341 339 336 336 335 334 334 333 334 335 331 330 332 330 332 331 330 329 329 329
344 347 350 340 343 344 345 343 341 341 341 344 347 347 348 348 346 344 342 342 342 343 342 339 336 335 334 333 333 332 332 331 330 328 328 328 328 330 329 329 328 327 327
343 346 348 342 340 340 338 336 338 338 330 340 344 343 344 344 343 342 341 341 340 340 339 337 335 334 334 333 332 329 329 331 328 327 327 327 329 329 329 328 326 325 325
343 345 347 346 341 336 333 332 336 335 332 338 340 341 340 340 340 340 340 340 339 337 337 336 334 333 332 331 330 328 327 330 327 327 325 326 328 328 327 327 326 325 325
338 340 344 342 340 339 336 333 334 335 336 337 338 338 337 337 338 338 337 338 338 337 335 334 333 332 330 329 328 326 327 327 326 326 325 325 328 327 327 326 325 324 324
331 332 335 339 338 337 338 334 331 331 336 336 337 336 334 336 334 337 335 336 336 335 333 333 331 329 328 327 327 326 327 326 325 325 324 328 327 327 326 325 324 323 323
330 329 331 335 334 334 334 337 337 338 339 338 338 338 335 336 334 335 336 335 334 333 332 331 329 327 325 323 324 325 326 326 325 325 325 328 327 327 326 324 324 323 322
331 331 332 329 334 335 333 334 335 339 341 341 339 336 332 333 333 331 335 335 334 330 326 326 325 322 323 321 323 326 326 327 325 324 325 327 327 326 325 323 322 322 320
330 331 330 330 331 334 334 333 335 335 337 337 338 332 331 330 329 330 332 332 332 326 325 323 323 327 325 322 324 325 326 325 325 324 325 326 327 325 325 323 322 321 320
330 331 331 332 328 329 331 332 330 335 335 337 335 334 330 327 329 328 329 332 329 327 326 324 325 324 324 323 324 324 324 325 325 324 324 325 325 325 324 323 322 321 319
329 330 331 330 330 330 331 332 331 331 333 333 329 331 328 327 326 325 327 328 329 329 327 326 325 323 323 323 323 324 324 325 325 325 324 324 324 325 324 323 322 320 319
329 330 329 331 328 329 327 327 326 326 324 321 322 324 322 323 325 328 326 327 330 330 330 328 326 323 321 321 322 323 324 325 325 325 324 323 323 323 324 325 322 321 319
328 327 328 329 329 328 327 325 324 322 320 320 319 319 320 319 322 321 324 327 330 329 327 325 322 320 319 320 320 321 322 324 325 325 324 324 323 322 322 324 324 322 320
327 326 327 329 328 328 327 325 323 321 319 319 318 317 318 319 319 319 321 323 326 324 324 324 323 322 319 319 318 320 322 322 323 323 324 324 324 323 323 322 323 323 322
327 327 326 327 325 325 323 324 321 320 320 319 318 316 317 317 319 319 318 320 320 319 320 321 322 322 320 318 316 317 320 320 322 322 322 322 324 323 323 323 322 320 321
326 325 324 324 322 322 321 320 318 316 317 316 315 315 316 318 319 318 319 320 320 317 319 322 321 320 318 320 314 314 316 318 319 320 322 321 321 322 323 323 322 321 320
325 324 323 323 322 322 322 321 319 318 317 316 315 313 315 317 317 321 322 322 320 318 321 321 320 319 318 320 314 314 310 313 315 317 318 318 322 320 320 321 321 323 322
324 323 322 322 322 323 323 322 319 317 317 315 315 312 315 318 321 323 324 322 321 324 322 325 324 323 319 319 321 318 314 312 316 317 317 316 319 318 316 317 319 319 323
325 324 321 321 321 322 323 321 317 314 312 315 314 315 316 320 321 322 323 323 324 324 324 324 324 324 322 318 316 316 321 320 313 309 316 317 315 310 313 313 313 317 319
326 324 322 321 320 322 322 321 321 317 316 317 317 315 315 316 318 319 321 322 321 322 326 325 324 323 323 323 320 319 320 319 320 314 310 316 317 316 316 314 314 316 317
326 324 323 322 321 321 323 322 322 319 317 316 314 314 315 315 317 319 321 319 320 321 324 326 326 324 324 324 324 324 320 317 316 314 312 316 317 318 317 318 316 315 318

GFSSE_sfc_thetae_084.txt.gz
Theta_e
345 346 349 351 352 353 351 350 350 350 351 351 350 349 350 351 350 349 348 348 348 349 347 346 349 348 347 347 346 347 346 345 344 345 346 344 344 343 342 342 341 337 343
346 346 348 350 351 352 351 350 350 350 351 352 349 349 350 350 350 349 348 348 348 348 348 347 347 346 344 345 346 345 345 343 343 343 344 343 342 342 341 341 339 337 338
349 346 347 348 351 352 352 351 350 351 352 351 349 350 350 350 350 349 348 348 348 349 347 346 345 344 344 345 344 344 343 342 342 341 341 335 335 340 339 338 339 337 336
348 349 347 347 350 352 351 350 350 351 352 350 349 350 350 351 350 349 348 346 346 348 346 345 344 343 342 343 343 342 341 341 340 338 333 334 333 338 338 337 336 335 334
346 349 349 346 348 350 350 350 349 349 349 349 348 350 351 351 349 348 346 345 345 348 346 344 343 341 340 340 340 340 341 340 339 333 330 330 331 334 336 334 332 332 333
344 349 343 343 345 348 349 350 348 347 346 347 346 349 350 350 349 347 344 343 344 345 345 343 340 338 337 337 336 336 336 336 334 329 327 330 329 334 333 332 330 330 330
345 349 346 340 343 346 346 347 341 339 336 332 340 347 349 348 346 345 343 343 342 344 343 339 337 336 335 335 335 332 330 330 327 324 325 325 326 331 331 329 329 328 328
346 348 348 341 342 341 340 337 334 333 334 331 329 336 346 346 345 343 342 342 341 341 339 337 336 335 334 333 331 328 328 331 325 323 323 323 329 329 329 328 327 327 326
345 346 343 346 340 335 334 334 335 335 332 331 329 329 342 341 341 341 340 341 340 339 337 336 335 334 333 331 329 327 327 332 323 323 323 323 328 328 328 327 326 326 325
338 340 341 342 341 338 334 333 336 334 333 333 331 335 337 338 338 337 338 338 338 337 336 334 333 332 331 329 327 326 326 328 321 322 322 324 327 328 328 327 326 325 325
331 332 338 337 338 337 336 334 333 336 336 335 332 333 334 336 335 335 336 336 336 335 334 333 332 330 328 327 326 326 328 322 321 321 322 328 327 328 327 325 325 324 324
329 329 334 337 334 336 336 333 334 334 336 335 330 334 335 334 333 333 334 334 334 333 332 331 330 328 325 320 320 324 320 322 321 320 321 328 327 327 327 325 324 324 323
329 331 331 332 334 332 331 335 336 335 336 336 334 333 333 333 333 331 331 332 330 331 327 326 325 321 318 318 320 320 321 323 321 321 324 327 327 326 326 325 323 323 321
329 329 330 331 333 335 334 332 334 334 334 334 334 333 332 330 330 329 329 330 327 325 323 321 320 319 318 318 320 323 321 322 321 321 323 326 327 326 325 324 324 322 321
328 329 330 331 331 331 332 333 332 333 333 333 333 332 331 329 328 330 330 328 325 321 320 318 318 318 318 317 320 320 321 322 320 320 321 325 325 326 324 324 323 322 320
329 331 332 331 331 330 330 331 331 331 333 333 333 333 332 330 326 328 327 327 322 321 319 318 320 319 318 318 319 320 321 321 320 320 320 321 323 325 324 323 323 322 321
328 331 331 330 329 328 330 329 329 329 330 331 332 332 329 329 327 326 325 324 323 322 319 322 321 320 318 318 318 319 320 321 321 320 319 319 320 323 323 324 322 321 320
328 329 330 329 327 327 327 327 323 321 321 322 323 330 327 327 326 324 323 323 326 326 323 322 319 317 317 317 316 317 319 321 321 320 320 319 319 319 322 323 323 322 320
327 327 328 328 327 326 326 324 320 319 319 319 319 320 324 322 323 322 323 323 324 322 322 320 319 316 315 316 316 317 318 319 319 320 320 319 318 319 318 322 322 322 322
327 328 328 327 326 327 325 322 319 318 318 317 317 317 318 319 320 319 319 320 320 319 319 318 316 316 315 315 315 316 317 318 318 317 319 321 320 319 318 318 318 318 320
328 325 325 324 325 324 322 318 317 315 316 315 316 316 316 316 318 318 318 318 319 317 317 317 315 314 312 315 313 313 314 316 316 317 317 317 318 319 319 318 317 317 317
325 324 324 323 323 322 322 320 318 316 316 315 315 315 315 315 316 316 317 316 316 315 316 316 315 313 313 316 310 309 306 309 312 315 316 317 316 317 317 318 318 318 317
324 323 323 322 322 322 322 320 318 317 315 313 312 313 314 316 316 315 316 315 316 315 315 316 315 314 312 314 315 313 308 306 307 312 312 312 313 315 315 317 318 318 318
324 324 322 321 321 321 322 318 316 312 310 311 310 312 312 315 316 315 315 316 317 317 316 315 318 316 317 312 314 316 315 315 309 306 312 312 312 312 312 311 312 314 314
325 323 322 320 321 322 322 318 316 313 312 312 311 309 311 315 318 319 318 319 317 321 320 320 319 318 319 317 313 314 313 316 316 311 306 311 312 311 310 311 310 310 312
325 323 320 319 320 321 321 318 316 314 313 312 310 309 311 314 316 317 320 320 320 320 321 320 320 319 318 318 319 318 315 313 313 310 309 309 311 312 312 312 311 310 310

GFSSE_sfc_thetae_087.txt.gz
Theta_e
342 347 349 351 351 350 350 349 350 350 351 350 350 351 351 350 350 349 349 349 349 349 348 349 350 348 348 348 349 348 347 346 345 345 344 345 343 343 342 342 341 338 343
344 346 347 351 351 350 350 350 350 350 351 350 351 351 350 349 349 349 348 348 348 349 347 348 349 346 346 346 346 345 345 344 344 344 345 344 342 342 340 339 340 338 341
342 346 347 348 351 351 351 351 351 352 351 350 351 350 350 349 349 348 348 347 348 350 348 346 344 345 345 346 345 344 343 342 341 341 341 335 336 340 339 338 338 337 338
343 344 345 347 349 351 350 350 350 351 351 350 350 351 350 350 349 349 348 347 347 348 347 347 346 345 345 343 342 342 342 340 339 338 334 334 336 339 338 336 336 334 334
343 344 345 345 347 350 350 349 349 350 350 349 349 351 351 350 350 349 347 345 346 347 346 346 344 344 343 341 340 340 340 338 335 332 331 332 333 336 337 334 331 332 331
342 343 341 343 345 350 350 349 349 349 347 343 341 347 351 350 349 347 345 344 345 346 346 344 343 343 341 340 340 340 337 335 331 327 329 331 331 335 334 332 332 331 329
340 341 341 341 344 347 350 349 348 345 337 332 331 330 339 348 348 346 344 344 343 344 345 342 341 339 338 337 336 333 330 333 325 323 325 328 329 333 332 329 329 328 328
339 341 341 342 342 343 345 344 341 336 335 336 332 330 333 340 344 344 343 342 342 342 341 339 338 337 336 334 332 329 328 329 324 322 323 326 330 331 330 328 327 328 327
335 337 340 339 338 338 336 335 335 335 335 334 332 329 330 331 340 342 342 341 341 339 338 337 336 335 334 332 329 327 329 327 321 321 323 325 329 329 329 327 327 327 326
329 335 338 337 333 328 330 334 334 334 333 332 333 331 330 330 337 339 339 339 339 338 337 336 334 333 331 329 327 328 327 326 321 320 322 325 328 328 327 327 327 326 326
326 327 334 336 333 330 329 333 335 335 333 333 333 331 329 334 336 336 336 337 337 336 335 334 333 330 328 327 326 327 325 321 321 321 321 328 328 328 327 327 326 325 325
321 325 332 334 332 330 333 330 329 332 333 331 328 332 330 334 334 335 334 335 335 334 333 332 330 328 324 318 319 323 320 320 320 320 320 328 328 328 327 326 325 325 324
324 325 330 331 332 332 331 328 329 330 330 330 328 332 332 332 333 332 332 331 330 331 327 326 325 319 317 317 318 317 320 319 320 320 324 327 329 327 327 326 325 324 323
324 325 326 329 328 330 330 330 329 329 330 332 328 332 331 331 329 330 329 328 327 326 322 320 317 315 315 317 318 318 319 319 319 320 323 326 325 327 326 326 325 323 322
323 324 325 326 327 330 327 326 326 327 328 330 331 332 331 330 328 327 329 327 325 322 320 317 315 314 314 316 317 319 319 319 319 320 320 325 325 327 326 325 324 323 321
326 324 324 326 325 325 324 324 324 327 328 328 330 330 329 329 328 327 328 325 322 321 318 316 315 315 314 315 316 319 319 319 319 319 319 321 324 325 325 325 324 323 322
326 327 325 325 326 325 325 325 325 324 326 327 329 330 329 329 327 327 327 323 320 319 316 316 315 316 314 317 316 318 319 318 319 318 318 318 320 322 324 325 324 323 321
326 326 326 327 323 326 325 322 320 320 319 324 327 331 329 329 327 327 325 323 320 319 315 317 318 316 314 314 314 316 319 318 318 317 318 318 316 318 321 324 324 323 321
325 326 324 323 321 323 324 321 320 320 319 321 322 328 328 329 326 326 325 323 321 320 317 318 315 315 314 314 314 314 316 318 317 318 317 317 316 316 316 321 322 322 322
325 325 323 322 321 323 322 319 319 318 317 318 318 323 326 327 326 326 323 322 322 321 318 317 314 314 315 315 316 315 314 317 318 316 316 318 317 317 317 317 318 318 320
321 323 322 320 319 322 319 316 316 314 315 315 316 319 323 322 322 321 320 319 319 319 316 315 314 313 312 313 312 311 313 315 315 316 318 317 316 316 317 317 316 316 317
320 321 320 320 319 321 320 318 318 315 315 315 315 316 319 320 320 320 319 318 318 316 315 312 311 311 310 312 311 309 305 307 311 314 315 316 316 317 316 316 315 315 315
318 319 319 318 319 321 321 319 317 315 313 312 312 313 316 319 320 319 318 318 316 315 313 311 311 311 310 311 311 308 304 302 306 309 311 313 313 313 315 316 316 315 315
317 320 319 319 319 320 321 317 314 312 310 311 312 313 313 316 317 317 316 316 316 316 313 313 313 312 312 309 312 315 314 312 304 303 309 309 310 311 311 312 316 317 317
318 318 318 319 320 320 320 318 315 312 313 311 311 311 313 313 313 314 315 314 314 315 315 314 314 314 314 312 309 310 310 313 313 307 303 309 311 310 310 312 313 315 316
318 317 317 317 319 320 319 317 315 313 311 309 309 309 311 312 313 313 313 313 315 316 316 315 315 315 316 315 314 314 311 310 310 311 308 308 307 309 311 310 309 311 311

GFSSE_sfc_thetae_090.txt.gz
Theta_e
341 348 349 351 350 350 350 349 349 349 350 351 351 351 351 351 351 350 350 350 350 352 350 350 351 351 351 349 349 348 347 346 346 345 346 344 344 344 343 342 342 338 343
343 347 348 350 350 350 350 349 349 350 350 351 351 350 349 349 350 349 349 349 349 351 349 348 348 348 348 348 347 346 346 344 343 343 344 342 342 342 341 341 341 338 341
343 346 349 348 349 350 350 350 350 351 350 351 350 349 349 349 349 349 348 348 349 350 348 347 347 347 346 347 345 344 344 342 342 342 341 335 335 339 338 340 341 339 338
343 344 346 348 349 350 349 350 350 351 349 350 350 349 349 349 349 348 347 347 348 349 347 344 347 345 345 344 343 342 341 340 339 339 334 334 334 337 336 335 336 336 335
341 343 344 346 348 349 349 349 349 350 349 349 349 349 349 349 349 348 347 347 348 348 347 345 345 344 343 342 340 340 339 337 336 334 332 333 333 336 336 334 333 334 333
340 342 342 343 347 349 349 349 349 349 347 347 348 349 349 349 348 347 346 346 347 347 347 346 345 343 341 340 339 337 335 334 332 329 332 333 331 335 333 331 332 331 330
339 340 340 340 345 348 349 349 348 347 344 340 339 339 337 338 343 345 344 345 345 346 345 344 342 341 339 338 337 334 333 331 326 327 329 329 330 333 332 330 329 328 328
338 338 339 342 343 346 347 347 345 341 337 336 334 334 333 333 339 341 342 343 343 343 342 341 340 340 338 335 333 332 330 329 325 325 327 328 332 332 332 328 328 327 327
337 337 340 341 340 341 341 341 338 338 335 335 335 333 333 332 330 335 340 341 341 340 340 339 338 337 334 332 331 330 328 327 322 324 326 327 331 331 329 329 327 327 327
330 332 333 336 335 331 331 336 335 335 335 334 335 332 331 331 329 326 337 339 340 339 338 337 335 334 332 330 329 327 327 326 321 322 324 326 330 330 329 327 327 327 326
325 327 332 330 331 329 329 332 334 334 334 333 333 331 329 328 328 328 336 337 338 337 336 335 333 331 329 329 328 327 325 320 321 320 323 328 327 328 329 327 326 326 326
320 323 329 331 331 329 330 328 329 331 330 329 330 329 327 327 328 331 335 335 336 335 334 333 331 329 324 323 323 324 320 320 320 319 322 328 327 328 327 326 326 325 325
321 323 327 329 332 331 328 326 325 327 330 328 329 330 330 330 333 332 332 332 331 331 328 327 326 319 316 317 317 319 319 319 319 319 323 327 328 328 327 326 326 325 325
321 323 324 329 330 331 331 326 325 326 330 327 329 329 330 331 330 330 330 330 328 325 321 318 318 315 314 316 318 318 319 319 318 319 323 324 327 327 327 327 326 325 324
322 322 323 325 328 327 330 329 327 326 329 328 329 329 331 330 328 329 328 328 326 324 320 316 314 314 313 315 318 318 318 318 318 319 320 324 326 327 327 327 326 325 324
324 323 323 324 324 326 323 324 324 324 327 329 328 330 331 330 329 328 327 326 324 323 320 317 313 311 311 314 316 318 318 318 318 318 319 321 324 325 326 326 325 324 323
324 324 323 323 323 323 323 322 321 322 326 329 330 330 330 329 328 328 326 323 322 320 318 316 312 311 311 314 317 318 318 318 318 318 317 318 320 322 324 325 324 323 322
323 323 324 325 322 321 322 324 323 320 321 327 330 330 329 328 327 328 326 321 320 318 316 315 313 312 310 313 315 317 317 317 317 317 317 316 316 318 321 324 324 323 322
324 324 323 323 321 320 321 321 320 320 318 321 326 329 328 328 327 327 325 321 318 316 314 315 312 313 312 312 315 316 316 316 317 317 316 315 315 315 315 322 322 322 323
325 325 324 322 320 321 320 319 319 318 318 318 317 325 329 328 327 326 326 321 318 314 314 316 314 313 313 313 316 315 316 316 315 316 315 317 316 316 315 316 317 317 320
324 323 322 319 320 320 317 317 316 314 315 316 316 320 326 327 326 325 323 321 319 313 315 316 315 314 313 312 312 311 313 315 315 315 315 316 316 316 316 316 315 314 316
321 321 320 319 320 319 317 318 317 315 315 315 316 318 324 324 326 325 323 321 320 315 316 315 314 311 312 313 311 309 307 308 310 314 315 315 315 316 315 315 315 315 315
319 319 319 319 319 319 318 318 316 314 314 312 313 315 320 323 322 323 322 320 319 317 315 314 314 313 312 310 312 308 302 302 305 308 312 315 314 314 315 315 315 315 314
319 320 319 318 317 319 318 316 313 312 311 312 312 313 317 320 321 321 320 319 318 316 314 313 314 313 313 310 309 313 311 308 305 302 308 311 313 314 314 314 314 314 315
319 318 318 317 317 318 318 317 314 312 313 313 312 312 313 316 318 319 319 318 317 317 315 313 312 312 313 310 309 309 309 311 309 304 301 306 308 310 313 314 314 314 315
317 317 316 316 316 318 318 317 314 313 311 310 310 311 312 312 313 315 316 317 317 316 315 314 314 313 313 312 311 312 311 310 310 309 306 306 307 308 309 310 311 313 315

GFSSE_sfc_thetae_093.txt.gz
Theta_e
340 345 348 350 350 350 349 348 348 349 350 351 352 352 352 352 351 351 350 351 351 351 349 351 351 351 350 348 348 347 347 346 345 345 346 345 345 345 344 343 342 339 344
342 346 347 349 350 349 348 349 348 350 350 351 351 351 351 351 351 351 350 351 350 351 348 349 352 350 348 347 347 345 345 344 343 344 344 344 343 343 342 341 342 339 342
343 347 347 347 350 350 349 349 349 351 351 351 350 350 350 350 350 350 349 349 350 348 347 349 350 348 347 347 346 345 344 343 342 342 340 334 336 341 340 340 341 339 340
343 346 346 347 348 349 349 349 350 350 350 350 349 350 350 350 350 349 348 348 348 348 348 348 348 347 346 345 344 343 342 341 340 339 333 333 333 339 339 338 338 338 338
341 344 346 346 347 348 349 349 349 349 349 349 348 349 349 349 349 349 347 347 348 349 349 347 347 345 344 342 341 341 340 339 337 333 331 331 331 335 337 336 335 335 335
338 341 342 344 345 348 349 349 349 348 347 347 347 349 349 349 349 348 346 346 347 347 347 348 345 343 340 339 338 338 337 335 333 329 331 334 329 335 333 332 333 333 333
336 338 339 341 345 348 349 349 348 347 346 347 347 347 347 347 346 346 344 344 345 345 345 344 342 341 339 338 337 335 333 333 329 328 328 328 329 333 332 331 331 330 330
336 336 338 342 344 346 347 347 346 345 343 343 342 339 340 341 339 339 340 342 342 342 341 341 340 340 338 336 334 332 331 331 328 327 328 328 333 332 331 330 329 329 328
336 335 336 338 340 343 342 343 341 340 339 338 336 337 339 337 336 337 338 340 340 340 339 339 338 337 336 334 332 330 329 329 325 327 328 328 333 332 331 329 329 327 327
333 333 333 335 335 335 334 339 338 336 334 335 335 334 335 336 337 337 337 337 339 339 339 338 337 334 332 332 330 328 328 327 324 324 326 328 332 331 331 329 327 327 326
325 328 329 329 329 330 332 337 336 335 335 335 335 333 331 329 328 331 334 335 336 337 337 337 335 331 331 330 328 327 326 321 322 322 325 331 331 331 330 329 327 327 326
321 324 332 327 325 326 332 332 329 332 332 330 329 329 328 328 327 329 331 333 336 335 334 334 331 330 329 325 324 324 319 320 320 320 323 329 330 331 330 327 326 326 326
321 322 327 327 325 325 326 327 328 327 325 325 326 328 326 326 327 328 330 332 333 334 331 329 324 322 322 321 318 317 318 319 318 319 324 328 329 330 328 327 326 326 325
319 321 324 326 327 326 329 324 324 325 328 326 326 327 329 326 326 329 330 331 329 328 326 325 318 319 317 318 318 318 318 318 317 319 323 326 326 327 328 327 326 325 324
319 320 323 325 325 327 329 326 323 324 328 328 326 327 330 328 326 329 329 328 327 325 323 319 315 316 316 317 317 316 316 316 317 319 320 325 327 328 327 327 326 325 324
322 321 322 323 323 324 324 328 327 326 329 327 326 328 330 329 328 328 328 327 325 323 322 320 315 313 314 316 315 316 316 317 318 318 319 320 324 326 327 326 326 325 324
323 323 322 323 322 323 322 322 325 326 329 328 326 327 329 329 328 328 327 326 324 323 320 316 312 312 313 315 315 316 316 317 317 317 317 317 320 323 325 326 325 324 323
323 322 322 325 322 322 321 320 322 322 327 328 328 329 329 329 329 328 326 324 322 320 317 315 312 311 311 314 314 315 316 317 317 316 316 316 316 318 322 324 324 324 323
323 322 321 322 321 320 319 319 319 321 322 325 328 329 329 329 328 328 325 323 320 318 317 315 310 311 311 313 314 314 314 316 316 317 316 315 315 315 316 322 322 322 323
322 323 322 322 321 320 320 318 316 316 319 319 321 326 328 328 327 328 325 320 318 316 313 314 312 311 311 314 315 314 314 313 316 316 316 316 315 315 315 317 319 318 321
322 322 322 320 321 321 318 315 315 315 315 315 315 316 324 328 326 327 324 319 318 313 314 315 312 312 311 313 313 311 312 311 312 314 315 315 315 315 315 316 316 314 317
322 323 322 321 320 319 319 317 316 315 315 315 316 316 318 326 327 326 325 320 317 313 313 315 312 310 310 315 311 310 307 309 312 313 312 313 313 315 315 315 315 313 313
321 321 321 320 320 319 316 314 313 313 313 313 313 316 318 324 325 325 324 321 318 313 314 315 313 312 310 309 315 310 304 305 306 308 310 311 312 312 314 315 314 315 314
320 321 320 321 319 318 315 313 313 311 309 312 313 314 318 322 324 324 323 321 318 314 315 315 315 314 313 310 309 311 310 309 305 301 307 310 311 312 313 314 314 315 315
319 319 320 319 318 317 315 314 312 311 311 311 312 313 316 318 321 322 322 321 319 315 315 315 313 314 314 312 312 310 309 309 308 304 301 306 309 313 314 314 314 314 315
318 318 318 317 316 316 314 313 313 312 312 310 311 311 313 314 316 319 320 319 317 315 314 314 312 314 313 313 312 310 310 308 308 307 304 305 307 308 312 313 312 314 315

GFSSE_sfc_thetae_096.txt.gz
Theta_e
338 343 348 350 350 350 349 348 349 351 352 353 352 352 352 352 352 351 351 350 351 352 353 353 352 352 352 350 349 348 348 347 346 346 347 347 346 346 345 344 344 341 346
340 344 347 349 350 349 349 349 349 350 352 353 352 352 351 352 351 351 351 350 351 352 353 353 352 351 349 347 347 347 346 345 344 344 345 345 344 344 343 343 343 342 344
340 344 346 347 349 349 349 349 350 351 352 353 352 352 352 352 351 351 351 350 350 351 350 352 350 350 348 347 346 346 345 344 343 343 342 337 338 343 342 342 343 343 342
341 344 345 347 348 349 349 349 350 351 351 351 351 352 352 351 351 351 350 349 349 350 350 348 348 348 347 346 345 344 343 341 340 338 333 334 336 341 340 340 340 340 340
341 344 343 346 347 348 348 349 349 349 349 349 350 351 351 351 350 350 349 347 347 348 350 348 347 347 345 343 342 341 340 339 337 332 329 331 334 338 340 339 338 338 338
338 343 343 343 345 348 348 349 348 349 348 347 348 349 350 350 350 349 347 347 347 347 348 347 346 344 342 340 340 339 338 336 333 329 331 333 331 337 337 336 336 336 335
335 337 340 341 344 347 349 349 348 347 346 347 347 347 346 343 342 343 343 344 343 345 346 345 344 342 340 339 338 337 335 334 330 328 328 329 330 334 334 335 334 334 333
334 335 337 343 344 345 346 347 345 343 344 345 345 345 344 340 340 341 342 340 341 341 341 342 341 340 338 337 336 334 333 332 328 327 328 328 334 333 333 332 332 332 330
334 334 335 337 342 343 342 342 341 342 342 342 341 342 340 339 338 339 339 338 338 340 340 341 339 338 337 335 333 332 330 330 326 327 328 328 334 332 332 331 330 328 327
331 332 332 334 335 337 338 339 340 339 338 337 338 338 335 334 335 334 334 336 338 339 339 340 338 336 334 333 331 330 329 329 325 326 327 329 333 332 331 329 330 328 327
329 329 330 330 330 330 332 338 338 337 335 335 335 335 332 331 331 332 332 334 338 337 337 338 336 334 332 330 329 329 326 322 322 324 327 332 332 332 331 328 327 328 328
328 327 331 327 326 327 331 335 335 334 334 333 332 332 331 329 327 332 333 335 336 336 336 335 332 332 329 326 326 324 319 320 320 322 326 331 332 331 331 329 329 328 328
325 323 331 326 324 325 327 331 332 333 331 330 330 330 329 328 328 326 328 331 332 334 333 331 328 327 324 323 318 317 318 318 319 322 327 330 332 331 330 328 328 328 327
319 323 328 328 324 323 323 326 329 329 327 326 326 326 326 326 326 326 327 328 330 332 330 324 323 322 321 319 318 317 317 317 317 320 325 328 330 330 330 328 328 328 327
317 320 323 328 328 325 323 323 325 326 327 326 324 325 327 325 325 326 326 328 328 331 328 320 319 319 318 317 317 317 317 317 318 320 321 326 327 329 328 329 329 328 326
320 319 321 327 328 328 326 323 322 324 327 327 326 327 327 328 327 326 327 327 326 327 325 319 317 317 317 317 316 317 316 317 318 318 319 323 325 327 328 328 328 328 326
321 321 320 322 323 324 322 323 325 326 327 327 326 327 329 328 326 326 326 325 325 324 323 318 316 315 315 316 315 316 317 316 317 318 317 320 323 324 326 327 327 326 325
321 320 321 325 323 322 320 320 321 326 329 328 327 326 329 327 327 327 326 325 324 321 319 315 314 314 314 314 313 314 315 317 317 317 318 318 318 320 323 325 326 325 324
322 321 320 323 323 320 319 318 318 320 326 328 327 327 328 329 326 326 326 324 322 320 317 315 311 314 313 313 313 313 314 315 316 317 317 317 318 318 318 322 323 323 324
322 322 321 323 321 318 319 318 317 318 318 322 327 328 328 329 328 327 326 322 322 318 316 315 311 313 314 314 315 312 313 313 314 315 315 317 317 317 318 319 320 319 321
320 320 320 321 321 322 320 319 317 317 317 315 315 322 327 328 327 327 325 320 320 318 316 314 312 311 313 315 312 311 311 312 313 314 315 315 315 316 316 318 318 317 319
319 321 320 322 322 322 321 320 317 317 316 312 313 317 318 323 327 327 324 320 318 316 315 312 312 311 312 315 311 310 307 309 312 313 313 314 314 315 315 316 317 316 317
318 319 321 321 321 322 320 317 315 314 313 312 313 312 313 317 324 327 323 321 318 316 314 313 313 313 311 313 315 310 306 304 307 310 311 312 312 313 314 314 315 315 315
319 321 321 321 321 320 318 315 313 312 309 310 310 312 317 316 322 324 324 321 319 316 315 315 313 313 313 311 314 312 311 310 306 302 308 311 312 312 313 313 314 315 315
320 321 322 321 320 319 316 314 312 308 312 313 309 314 316 318 319 324 323 321 318 315 316 316 313 313 314 313 313 309 309 309 308 305 303 306 310 312 314 314 314 315 315
321 321 320 319 319 318 316 312 311 309 310 310 311 312 315 317 320 322 322 321 319 315 314 315 314 314 314 313 313 312 310 308 307 306 304 306 308 311 314 314 314 314 315

GFSSE_sfc_thetae_099.txt.gz
Theta_e
343 347 346 347 350 349 350 350 351 352 352 352 353 352 352 353 353 353 352 352 353 353 353 352 353 352 350 350 350 350 349 348 347 348 348 348 348 347 346 347 345 344 347
346 348 345 346 350 349 349 350 351 352 353 353 352 352 352 352 352 352 351 351 352 353 352 351 353 351 350 349 349 347 347 346 345 345 346 347 346 345 345 345 344 344 346
346 348 348 347 349 350 349 350 351 353 354 353 353 352 352 352 352 351 351 351 351 352 352 351 350 350 349 348 347 346 346 344 344 344 345 343 344 344 344 344 344 344 345
346 347 348 347 348 349 348 349 351 353 353 353 353 352 352 352 351 351 351 350 351 351 353 350 350 349 348 347 345 345 344 343 341 342 342 341 340 342 343 342 342 342 342
345 347 348 346 347 348 348 348 350 351 349 351 351 352 352 352 351 351 348 346 349 351 351 350 349 348 346 344 343 342 341 339 338 339 340 340 340 340 341 341 341 340 340
345 346 345 344 346 348 348 349 349 349 348 347 350 351 352 351 351 349 345 344 348 349 349 349 347 346 343 342 341 340 338 336 336 338 338 339 339 340 340 339 339 339 338
345 345 346 342 345 347 349 349 348 347 347 347 349 349 349 346 346 342 340 342 344 346 346 346 345 343 341 340 339 337 335 334 336 336 336 336 338 338 338 337 337 337 336
345 346 348 344 344 345 346 346 345 345 345 345 346 346 345 344 342 341 340 342 343 342 342 342 341 340 340 339 337 335 333 334 334 334 334 335 336 336 337 336 335 335 333
344 345 347 349 346 343 342 342 342 342 344 343 342 342 342 341 340 340 341 342 341 340 341 340 340 338 338 337 335 333 331 333 335 334 333 333 336 334 334 334 332 331 330
342 344 344 348 349 349 349 340 340 341 341 341 340 339 338 338 338 339 340 339 339 339 340 339 338 336 336 334 333 331 330 332 334 334 333 333 335 334 332 330 330 330 330
338 342 343 344 345 348 349 346 341 341 339 338 339 338 336 340 339 340 336 336 338 338 338 338 337 334 332 332 331 330 330 334 334 332 332 332 334 334 332 331 329 329 328
335 337 341 342 342 343 343 342 342 340 337 337 340 340 342 339 339 336 334 333 335 336 337 337 334 332 332 333 333 329 333 333 332 332 332 332 333 333 331 330 329 329 329
334 334 337 337 340 340 337 337 337 337 335 334 336 336 334 332 333 334 336 336 338 335 335 334 332 335 335 334 332 331 331 331 331 331 330 331 333 332 330 329 330 329 328
332 334 333 334 337 338 338 333 334 335 336 333 332 332 331 331 331 331 334 335 335 335 331 330 332 335 333 331 330 329 330 330 330 330 330 330 331 332 331 331 331 329 328
331 334 334 332 335 336 336 336 336 335 333 332 330 331 331 332 332 334 332 331 331 332 328 326 325 326 328 329 329 328 327 328 329 329 329 327 329 331 329 330 331 329 328
331 332 334 331 332 334 334 335 334 335 333 330 330 330 332 330 329 328 330 328 330 331 327 324 324 326 327 328 327 327 327 327 328 328 328 329 326 328 330 329 329 328 327
330 330 330 330 331 330 330 333 333 333 332 329 329 331 331 331 331 329 327 326 328 329 323 322 322 322 326 326 325 325 326 326 326 326 326 326 326 324 327 329 328 327 326
330 327 328 331 328 328 328 332 332 330 330 331 331 333 331 333 332 330 326 327 326 324 320 320 319 318 321 323 323 324 324 324 325 324 325 325 325 324 325 327 327 328 326
328 328 327 330 327 328 332 332 332 329 328 329 331 330 331 330 333 330 329 326 324 321 319 318 318 318 318 321 322 322 323 323 324 323 324 325 326 325 325 324 324 324 325
328 329 328 329 328 327 330 330 330 328 327 329 330 329 330 331 331 330 327 325 323 320 316 317 316 318 318 321 320 320 322 323 323 323 323 324 325 325 325 325 324 322 321
327 327 327 327 325 324 325 323 323 323 325 325 326 329 329 330 328 328 325 324 324 320 317 316 316 316 318 321 318 316 318 321 321 322 323 323 323 324 325 324 323 323 322
323 326 326 327 324 326 326 325 325 323 322 324 324 323 327 331 329 327 324 323 322 321 318 316 316 316 318 319 316 315 309 312 317 320 321 321 323 323 321 322 323 323 323
321 325 325 327 325 327 326 324 320 318 317 317 319 322 321 323 326 328 325 324 322 320 318 317 317 318 315 319 320 317 309 308 312 317 319 320 321 322 323 323 323 322 322
322 325 326 327 325 325 324 321 320 319 316 316 320 320 323 323 326 325 325 323 321 320 317 316 317 318 318 316 317 316 321 318 312 310 316 317 320 319 321 321 321 321 322
322 324 326 326 325 324 322 322 319 317 318 320 320 320 322 323 324 326 325 323 320 319 318 316 315 318 318 317 314 314 313 317 318 314 309 311 316 318 320 320 320 320 321
323 324 325 324 323 322 320 320 317 317 319 317 316 318 319 320 321 324 325 324 320 320 319 317 317 315 316 317 317 314 313 313 312 312 310 312 313 316 318 319 319 319 320